Flag for Guyana Weather past 2 weeks in Linden, Guyana

Now
84 °F

Broken clouds.


Feels Like: 92 °F
Forecast: 73 / 83 °F
Wind: 14 mph from Northeast

Location: Georgetown/Cheddi Jagan International Airport

Current Time: Apr 18, 2015 at 12:31:06 PM

Latest Report: Apr 18, 2015 at 12:00 PM


Visibility: N/A

Pressure: 29.95 "Hg

Humidity: 74%

Dew point: 75 °F

Location of LindenLocation

Historic Weather in Linden — Graph

°F

Linden temperature yesterday

Maximum temperature yesterday: 84 °F (at 10:00 AM)
Minimum temperature yesterday: 72 °F (at 3:00 AM)
Average temperature yesterday: 77 °F

Past Weeks' High & Low Weather Summary

 TemperatureHumidityPressure
High90 °F (Apr 4, 1:00 PM)100% (Apr 3, 5:00 PM)30.04 "Hg (Apr 3, 5:00 PM)
Low66 °F (Apr 6, 6:00 AM)49% (Apr 4, 1:00 PM)29.83 "Hg (Apr 4, 3:00 PM)
Average78 °F83%29.91 "Hg
* Reported Apr 3 11:00 AM — Apr 18 11:00 AM, Linden, Weather by CustomWeather, © 2015

Note: Actual official high and low records may vary slightly from our data, if they occured in-between our weather recording intervals... More about our weather records

Advertising

Linden weather history for previous 24 hours

 ConditionsComfort  
Time TempWeatherWind HumidityBarometerVisibility
11:00 AM
Sat, Apr 18
84 °FBroken clouds.7 mph74%29.98 "HgN/A
10:00 AM81 °FBroken clouds.9 mph84%29.98 "HgN/A
8:00 AM77 °FBroken clouds.No wind94%29.98 "HgN/A
7:00 AM75 °FScattered clouds.No wind94%29.95 "HgN/A
6:00 AM73 °FScattered clouds.No wind100%29.92 "HgN/A
5:00 AM72 °FPartly cloudy.2 mph100%29.89 "HgN/A
4:00 AM73 °FSprinkles. Passing clouds.2 mph100%29.89 "Hg5 mi
2:00 AM73 °FPassing clouds.No wind100%29.89 "HgN/A
1:00 AM73 °FFog.No wind100%29.92 "Hg3 mi
11:00 PM
Fri, Apr 17
75 °FOvercast.No wind94%29.98 "HgN/A
10:00 PM75 °FLight rain. Overcast.No wind94%29.95 "HgN/A
9:00 PM73 °FLight rain. Overcast.No wind100%29.92 "Hg6 mi
8:00 PM75 °FRain. Overcast.No wind94%29.92 "Hg4 mi
7:00 PM75 °FRain. Overcast.5 mph94%29.89 "Hg3 mi
6:00 PM75 °FRain. Overcast.5 mph94%29.89 "Hg4 mi
5:00 PM75 °FRain. Broken clouds.5 mph100%29.86 "Hg4 mi
4:00 PM75 °FRain showers. Partly sunny.7 mph100%29.86 "Hg3 mi
3:00 PM77 °FRain showers. Partly sunny.14 mph94%29.86 "Hg4 mi
2:00 PM79 °FPartly sunny.14 mph89%29.86 "Hg6 mi
1:00 PM82 °FBroken clouds.14 mph74%29.89 "HgN/A
12:00 PM84 °FPartly sunny.12 mph74%29.92 "HgN/A
Weather by CustomWeather, © 2015

See weather overviewHow to use our weather pages